Weather History for OITL - June, 2014

Change the Weather History Date:

Friday, June 6, 2014

  Actual Average Record
Temperature  
Mean Temperature 60 °F -  
Max Temperature 75 °F - - ()
Min Temperature 44 °F - - ()
Degree Days  
Heating Degree Days 6    
Growing Degree Days 10 (Base 50)    
Moisture  
Dew Point 42 °F    
Average Humidity 51    
Maximum Humidity 76    
Minimum Humidity 31    
Precipitation  
Precipitation 0.00 in - - ()
Sea Level Pressure  
Sea Level Pressure 29.90 in    
Wind  
Wind Speed 8 mph ()    
Max Wind Speed 24 mph    
Max Gust Speed -    
Visibility 6.2 miles    
Events Rain , Thunderstorm    
T = Trace of Precipitation, MM = Missing Value Source: Averaged Metar Reports

Daily Weather History Graph

Daily Weather History Graph

Search for Another Location

Airport or City:

Trip Planner

Search our weather history database for the weather conditions in past years. The results will help you decide how hot, cold, wet, or windy it might be!

Date:

Astronomy

Jun. 06, 2014 Rise Set
Actual Time 5:53 AM IRDT 8:37 PM IRDT
Civil Twilight 5:21 AM IRDT 9:08 PM IRDT
Nautical Twilight 4:42 AM IRDT 9:47 PM IRDT
Astronomical Twilight 3:58 AM IRDT 10:32 PM IRDT
Moon 1:39 PM IRDT (6/6) 1:27 AM IRDT (6/6)
Length of Visible Light 15h 46m
Length of Day
14h 44m
First Quarter, 54% of the Moon is Illuminated
Jun 6
First Quarter
Jun 13
Full
Jun 19
Last Quarter
Jun 27
New
Jul 5
First Quarter

Hourly Weather History & Observations

Time (IRDT) Temp. Windchill Dew Point Humidity Pressure Visibility Wind Dir Wind Speed Gust Speed Precip Events Conditions
12:22 AM 51.8 °F - 35.6 °F 54% 30.01 in - SW 9.2 mph - N/A   Clear
1:22 AM 46.4 °F 42.9 °F 37.4 °F 71% 29.98 in - ENE 6.9 mph - N/A   Clear
2:20 AM 46.4 °F 42.9 °F 37.4 °F 71% 29.98 in - ENE 6.9 mph - N/A   Clear
4:23 AM 44.6 °F 42.2 °F 37.4 °F 76% 29.95 in - East 4.6 mph - N/A   Clear
5:20 AM 44.6 °F 42.2 °F 37.4 °F 76% 29.95 in - East 4.6 mph - N/A   Clear
6:20 AM 46.4 °F 44.3 °F 37.4 °F 71% 29.95 in - ESE 4.6 mph - N/A   Clear
7:30 AM 48.2 °F - 41.0 °F 76% 29.98 in 6.2 mi Calm Calm - N/A   Partly Cloudy
8:30 AM 59.0 °F - 41.0 °F 51% 29.98 in - Calm Calm - N/A   Clear
9:30 AM 64.4 °F - 39.2 °F 40% 29.95 in - Calm Calm - N/A   Clear
10:30 AM 66.2 °F - 42.8 °F 43% 29.95 in - Calm Calm - N/A   Clear
11:00 AM 71.6 °F - 41.0 °F 33% 29.95 in - East 9.2 mph - N/A   Clear
11:30 AM 73.4 °F - 41.0 °F 31% 29.95 in 6.2 mi East 6.9 mph - N/A   Partly Cloudy
12:00 PM 73.4 °F - 44.6 °F 36% 29.95 in 6.2 mi ENE 11.5 mph - N/A   Partly Cloudy
12:30 PM 73.4 °F - 44.6 °F 36% 29.95 in 6.2 mi ENE 13.8 mph - N/A   Partly Cloudy
1:00 PM 73.4 °F - 41.0 °F 31% 29.92 in 6.2 mi ENE 13.8 mph - N/A   Partly Cloudy
1:30 PM 73.4 °F - 42.8 °F 33% 29.92 in 6.2 mi ENE 16.1 mph - N/A   Partly Cloudy
2:30 PM 75.2 °F - 46.4 °F 36% 29.89 in 6.2 mi East 20.7 mph - N/A   Partly Cloudy
3:30 PM 66.2 °F - 48.2 °F 52% 29.92 in 6.2 mi ENE 21.9 mph - N/A   Scattered Clouds
4:00 PM 64.4 °F - 48.2 °F 56% 29.92 in 6.2 mi East 19.6 mph - N/A Thunderstorm Thunderstorm
4:30 PM 68.0 °F - 50.0 °F 52% 29.92 in 6.2 mi ENE 18.4 mph - N/A   Mostly Cloudy
5:00 PM 69.8 °F - 51.8 °F 53% 28.88 in 6.2 mi East 21.9 mph - N/A Rain Light Rain Showers
5:30 PM 66.2 °F - 50.0 °F 56% 29.89 in 6.2 mi ENE 21.9 mph - N/A   Scattered Clouds
6:00 PM 64.4 °F - 50.0 °F 59% 29.89 in 6.2 mi ENE 16.1 mph - N/A   Mostly Cloudy
6:30 PM 64.4 °F - 51.8 °F 64% 29.86 in 6.2 mi ENE 18.4 mph - N/A Rain , Thunderstorm Thunderstorms and Rain
7:30 PM 60.8 °F - 44.6 °F 55% 29.89 in 6.2 mi ENE 24.2 mph - N/A   Scattered Clouds
8:24 PM 60.8 °F - 37.4 °F 42% 29.95 in 6.2 mi North 11.5 mph - N/A Thunderstorm Thunderstorm
9:20 PM 59.0 °F - 33.8 °F 39% 29.95 in 6.2 mi East 11.5 mph - N/A   Scattered Clouds
10:23 PM 59.0 °F - 35.6 °F 42% 29.98 in 6.2 mi Calm Calm - N/A   Scattered Clouds
11:23 PM 53.6 °F - 39.2 °F 58% 29.98 in 6.2 mi Variable 4.6 mph - N/A   Partly Cloudy